QPF
0.01 0.02 0.02 0.02 0.01 0.02 0.02 0.02 0.02 0.02 0.02 0.02 0.02 0.03 0.03 0.04 0.05 0.04 0.05 0.06 0.05 0.04 0.04 0.05 0.06 0.08 0.08 0.08 0.08 0.09 0.08 0.06 0.07 0.06 0.06 0.05 0.04 0.04 0.03 0.04 0.05 0.04 0.05
0.01 0.03 0.04 0.02 0.01 0.02 0.03 0.03 0.02 0.02 0.02 0.01 0.01 0.02 0.04 0.05 0.05 0.06 0.06 0.05 0.05 0.05 0.05 0.05 0.06 0.08 0.10 0.08 0.08 0.07 0.07 0.07 0.08 0.08 0.08 0.07 0.08 0.05 0.03 0.04 0.04 0.03 0.04
0.01 0.06 0.11 0.09 0.03 0.03 0.05 0.03 0.02 0.02 0.02 0.02 0.02 0.03 0.05 0.07 0.07 0.07 0.06 0.06 0.05 0.06 0.06 0.05 0.06 0.08 0.10 0.12 0.10 0.08 0.08 0.08 0.08 0.08 0.07 0.07 0.07 0.07 0.04 0.03 0.03 0.03 0.04
0.01 0.06 0.15 0.16 0.08 0.05 0.05 0.04 0.04 0.03 0.03 0.03 0.03 0.03 0.04 0.05 0.06 0.04 0.05 0.05 0.04 0.04 0.05 0.06 0.06 0.09 0.09 0.11 0.12 0.11 0.09 0.10 0.08 0.07 0.06 0.06 0.07 0.07 0.06 0.06 0.04 0.04 0.04
0.01 0.03 0.06 0.07 0.05 0.05 0.04 0.04 0.04 0.04 0.03 0.03 0.03 0.03 0.03 0.04 0.05 0.06 0.06 0.06 0.05 0.04 0.03 0.05 0.06 0.08 0.08 0.09 0.11 0.14 0.12 0.10 0.08 0.07 0.07 0.07 0.07 0.06 0.06 0.06 0.06 0.06 0.06
0.01 0.01 0.02 0.04 0.04 0.04 0.04 0.03 0.04 0.04 0.05 0.04 0.04 0.03 0.04 0.06 0.06 0.07 0.07 0.07 0.07 0.06 0.04 0.05 0.07 0.07 0.07 0.07 0.09 0.11 0.13 0.13 0.11 0.10 0.09 0.07 0.09 0.07 0.06 0.05 0.05 0.05 0.05
0.02 0.03 0.03 0.03 0.03 0.03 0.03 0.02 0.03 0.04 0.04 0.04 0.03 0.03 0.04 0.06 0.05 0.05 0.06 0.06 0.06 0.05 0.05 0.06 0.06 0.06 0.06 0.05 0.06 0.08 0.09 0.11 0.11 0.10 0.08 0.08 0.09 0.09 0.07 0.06 0.05 0.04 0.04
0.01 0.02 0.02 0.03 0.03 0.03 0.02 0.03 0.02 0.02 0.03 0.03 0.03 0.03 0.04 0.05 0.06 0.06 0.06 0.05 0.04 0.04 0.04 0.04 0.04 0.04 0.04 0.04 0.05 0.05 0.06 0.07 0.08 0.07 0.08 0.08 0.08 0.07 0.06 0.07 0.07 0.05 0.04
0.01 0.01 0.01 0.02 0.03 0.02 0.03 0.03 0.02 0.02 0.03 0.03 0.04 0.04 0.04 0.04 0.05 0.05 0.05 0.05 0.04 0.04 0.03 0.03 0.03 0.04 0.05 0.05 0.06 0.05 0.05 0.06 0.06 0.05 0.06 0.07 0.06 0.07 0.06 0.07 0.07 0.07 0.05
0.03 0.02 0.02 0.02 0.03 0.03 0.03 0.03 0.03 0.03 0.03 0.04 0.04 0.04 0.06 0.06 0.06 0.05 0.04 0.04 0.04 0.04 0.03 0.03 0.02 0.03 0.04 0.04 0.06 0.06 0.06 0.08 0.07 0.06 0.08 0.08 0.06 0.06 0.06 0.05 0.05 0.06 0.05
0.05 0.02 0.02 0.03 0.04 0.03 0.04 0.03 0.02 0.02 0.04 0.05 0.05 0.05 0.07 0.06 0.06 0.05 0.03 0.02 0.03 0.04 0.04 0.04 0.03 0.03 0.03 0.05 0.05 0.04 0.05 0.07 0.07 0.06 0.07 0.07 0.07 0.07 0.05 0.05 0.04 0.04 0.04
0.06 0.04 0.02 0.03 0.02 0.02 0.03 0.03 0.02 0.02 0.03 0.07 0.08 0.06 0.06 0.06 0.06 0.05 0.04 0.03 0.03 0.03 0.03 0.04 0.04 0.03 0.03 0.03 0.03 0.04 0.04 0.05 0.05 0.06 0.07 0.07 0.08 0.09 0.07 0.05 0.03 0.03 0.03
0.02 0.02 0.03 0.02 0.02 0.02 0.02 0.01 0.01 0.02 0.02 0.04 0.05 0.06 0.06 0.05 0.05 0.05 0.05 0.05 0.05 0.05 0.05 0.05 0.05 0.05 0.04 0.03 0.04 0.05 0.06 0.06 0.06 0.06 0.07 0.07 0.08 0.09 0.08 0.07 0.05 0.04 0.02
0.02 0.02 0.02 0.02 0.01 0.02 0.02 0.02 0.03 0.02 0.02 0.02 0.03 0.04 0.05 0.05 0.05 0.05 0.05 0.05 0.05 0.05 0.05 0.04 0.05 0.05 0.05 0.04 0.03 0.05 0.06 0.07 0.08 0.09 0.08 0.08 0.08 0.08 0.09 0.09 0.09 0.07 0.05
0.02 0.01 0.01 0.01 0.01 0.01 0.01 0.02 0.03 0.03 0.02 0.04 0.04 0.04 0.04 0.05 0.05 0.05 0.05 0.05 0.06 0.04 0.04 0.04 0.04 0.04 0.03 0.02 0.03 0.03 0.03 0.05 0.07 0.09 0.10 0.10 0.10 0.10 0.10 0.09 0.10 0.09 0.07
0.01 0.01 0.01 0.01 0.01 0.01 0.01 0.01 0.01 0.02 0.02 0.02 0.03 0.03 0.04 0.05 0.06 0.05 0.05 0.05 0.05 0.06 0.05 0.04 0.04 0.04 0.02 0.02 0.02 0.02 0.02 0.03 0.04 0.06 0.08 0.09 0.11 0.11 0.11 0.10 0.09 0.08 0.07
0.01 0.01 0.01 0.02 0.01 0.01 0.01 0.01 0.01 0.01 0.01 0.01 0.02 0.02 0.03 0.04 0.05 0.05 0.06 0.06 0.06 0.05 0.06 0.05 0.04 0.04 0.03 0.03 0.01 0.01 0.02 0.03 0.03 0.03 0.04 0.05 0.05 0.07 0.08 0.08 0.08 0.07 0.07
0.02 0.02 0.03 0.03 0.02 0.02 0.02 0.02 0.01 0.01 0.01 0.01 0.01 0.01 0.02 0.02 0.03 0.04 0.05 0.05 0.07 0.06 0.06 0.06 0.05 0.04 0.03 0.02 0.01 0.01 0.01 0.02 0.03 0.03 0.03 0.04 0.04 0.05 0.05 0.05 0.05 0.04 0.04
0.03 0.03 0.03 0.02 0.02 0.02 0.02 0.02 0.03 0.02 0.01 0.01 0.01 0.01 0.01 0.01 0.03 0.03 0.04 0.05 0.06 0.06 0.05 0.05 0.05 0.05 0.03 0.03 0.02 0.01 0.01 0.01 0.02 0.02 0.02 0.02 0.03 0.04 0.03 0.03 0.03 0.04 0.04
0.02 0.01 0.01 0.01 0.01 0.01 0.02 0.02 0.02 0.02 0.02 0.01 0.01 0.01 0.01 0.02 0.02 0.03 0.04 0.04 0.04 0.05 0.05 0.05 0.06 0.06 0.04 0.04 0.02 0.02 0.02 0.01 0.02 0.01 0.01 0.01 0.01 0.02 0.03 0.02 0.03 0.03 0.03
0.01 0.01 0.01 0.01 0.01 0.01 0.01 0.02 0.03 0.02 0.02 0.01 0.01 0.02 0.02 0.02 0.03 0.04 0.04 0.03 0.04 0.06 0.06 0.05 0.06 0.06 0.04 0.03 0.03 0.01 0.01 0.02 0.02 0.01 0.01 0.01 0.01 0.01 0.01 0.02 0.03 0.03 0.03
0.00 0.00 0.00 0.01 0.01 0.01 0.02 0.02 0.03 0.02 0.03 0.03 0.03 0.03 0.03 0.02 0.03 0.05 0.05 0.04 0.04 0.05 0.06 0.06 0.06 0.06 0.06 0.04 0.03 0.02 0.01 0.01 0.02 0.02 0.02 0.02 0.01 0.01 0.01 0.03 0.03 0.03 0.03
0.01 0.00 0.01 0.01 0.01 0.01 0.01 0.03 0.02 0.02 0.03 0.03 0.04 0.03 0.03 0.02 0.02 0.04 0.05 0.06 0.06 0.06 0.05 0.06 0.06 0.05 0.06 0.05 0.03 0.02 0.01 0.01 0.01 0.02 0.02 0.03 0.02 0.02 0.02 0.02 0.02 0.02 0.02
0.01 0.01 0.01 0.00 0.01 0.01 0.01 0.02 0.02 0.02 0.03 0.04 0.04 0.04 0.02 0.02 0.02 0.04 0.03 0.04 0.05 0.05 0.05 0.05 0.04 0.04 0.05 0.05 0.04 0.02 0.02 0.01 0.01 0.01 0.01 0.02 0.02 0.02 0.02 0.02 0.02 0.02 0.02
0.02 0.01 0.01 0.01 0.01 0.01 0.01 0.01 0.01 0.02 0.03 0.04 0.05 0.05 0.04 0.03 0.03 0.03 0.03 0.03 0.04 0.04 0.04 0.04 0.03 0.03 0.04 0.05 0.06 0.05 0.03 0.02 0.01 0.01 0.01 0.01 0.01 0.02 0.02 0.02 0.02 0.03 0.03
0.02 0.01 0.01 0.01 0.01 0.01 0.02 0.02 0.02 0.03 0.04 0.04 0.04 0.04 0.04 0.04 0.04 0.03 0.02 0.02 0.02 0.02 0.03 0.04 0.04 0.04 0.05 0.05 0.05 0.05 0.05 0.04 0.04 0.03 0.02 0.02 0.02 0.03 0.03 0.04 0.04 0.05 0.05
MSLP
1003.71 1004.89 1006.09 1007.25 1008.27 1009.13 1009.81 1010.34 1010.74 1011.07 1011.37 1011.67 1011.98 1012.30 1012.62 1012.90 1013.14 1013.33 1013.46 1013.54 1013.60 1013.66 1013.72 1013.82 1013.95 1014.10 1014.26 1014.41 1014.53 1014.61 1014.64 1014.62 1014.55 1014.45 1014.32 1014.16 1013.98 1013.78 1013.55 1013.31 1013.06 1012.84 1012.64
1003.42 1004.68 1005.96 1007.17 1008.23 1009.11 1009.80 1010.33 1010.74 1011.10 1011.43 1011.77 1012.12 1012.46 1012.79 1013.07 1013.29 1013.45 1013.55 1013.62 1013.68 1013.75 1013.85 1014.00 1014.17 1014.35 1014.54 1014.70 1014.82 1014.90 1014.94 1014.93 1014.90 1014.85 1014.77 1014.67 1014.54 1014.36 1014.13 1013.86 1013.56 1013.24 1012.95
1002.99 1004.30 1005.63 1006.88 1007.97 1008.87 1009.58 1010.14 1010.60 1011.00 1011.38 1011.77 1012.16 1012.53 1012.87 1013.14 1013.34 1013.48 1013.56 1013.63 1013.70 1013.81 1013.96 1014.15 1014.38 1014.61 1014.81 1014.98 1015.10 1015.18 1015.21 1015.21 1015.21 1015.20 1015.18 1015.15 1015.08 1014.95 1014.74 1014.47 1014.13 1013.76 1013.38
1002.39 1003.71 1005.06 1006.34 1007.46 1008.40 1009.16 1009.78 1010.30 1010.77 1011.23 1011.68 1012.12 1012.52 1012.86 1013.13 1013.31 1013.43 1013.50 1013.58 1013.67 1013.83 1014.03 1014.29 1014.57 1014.85 1015.08 1015.26 1015.38 1015.44 1015.46 1015.46 1015.47 1015.50 1015.53 1015.56 1015.54 1015.47 1015.30 1015.04 1014.69 1014.28 1013.85
1001.65 1002.95 1004.30 1005.59 1006.74 1007.74 1008.57 1009.27 1009.88 1010.45 1011.00 1011.52 1012.01 1012.44 1012.79 1013.05 1013.21 1013.31 1013.39 1013.47 1013.60 1013.80 1014.07 1014.39 1014.73 1015.05 1015.32 1015.51 1015.62 1015.67 1015.68 1015.67 1015.69 1015.73 1015.80 1015.87 1015.91 1015.89 1015.76 1015.52 1015.17 1014.74 1014.26
1000.80 1002.05 1003.38 1004.68 1005.87 1006.92 1007.84 1008.64 1009.37 1010.05 1010.69 1011.30 1011.84 1012.31 1012.67 1012.92 1013.07 1013.15 1013.22 1013.31 1013.47 1013.71 1014.04 1014.42 1014.82 1015.19 1015.49 1015.70 1015.82 1015.86 1015.85 1015.84 1015.85 1015.90 1015.99 1016.09 1016.16 1016.17 1016.08 1015.87 1015.53 1015.09 1014.59
999.92 1001.10 1002.39 1003.68 1004.90 1006.01 1007.01 1007.92 1008.77 1009.56 1010.31 1011.00 1011.60 1012.10 1012.48 1012.72 1012.86 1012.94 1013.00 1013.10 1013.28 1013.56 1013.93 1014.36 1014.81 1015.22 1015.56 1015.79 1015.92 1015.97 1015.96 1015.94 1015.95 1016.00 1016.10 1016.21 1016.31 1016.34 1016.28 1016.09 1015.77 1015.34 1014.84
999.09 1000.18 1001.41 1002.67 1003.90 1005.05 1006.13 1007.14 1008.08 1008.98 1009.83 1010.60 1011.26 1011.80 1012.19 1012.45 1012.59 1012.66 1012.73 1012.84 1013.03 1013.33 1013.73 1014.20 1014.68 1015.13 1015.50 1015.76 1015.92 1015.98 1015.98 1015.97 1015.99 1016.04 1016.14 1016.26 1016.36 1016.42 1016.37 1016.21 1015.92 1015.52 1015.03
998.37 999.36 1000.51 1001.71 1002.92 1004.09 1005.21 1006.29 1007.32 1008.30 1009.23 1010.07 1010.79 1011.37 1011.80 1012.07 1012.23 1012.32 1012.40 1012.52 1012.73 1013.05 1013.46 1013.95 1014.45 1014.92 1015.32 1015.61 1015.80 1015.89 1015.93 1015.94 1015.97 1016.03 1016.13 1016.26 1016.37 1016.44 1016.42 1016.29 1016.04 1015.68 1015.22
997.83 998.71 999.75 1000.87 1002.02 1003.17 1004.30 1005.41 1006.48 1007.53 1008.51 1009.40 1010.18 1010.81 1011.28 1011.59 1011.79 1011.91 1012.02 1012.16 1012.39 1012.72 1013.14 1013.64 1014.15 1014.64 1015.06 1015.38 1015.61 1015.74 1015.82 1015.87 1015.92 1016.01 1016.12 1016.25 1016.38 1016.46 1016.47 1016.38 1016.17 1015.86 1015.46
997.50 998.26 999.19 1000.21 1001.27 1002.36 1003.45 1004.54 1005.62 1006.68 1007.69 1008.62 1009.44 1010.11 1010.63 1011.01 1011.27 1011.45 1011.61 1011.80 1012.05 1012.40 1012.83 1013.32 1013.84 1014.33 1014.77 1015.12 1015.39 1015.58 1015.70 1015.80 1015.89 1016.00 1016.14 1016.28 1016.42 1016.52 1016.55 1016.50 1016.35 1016.10 1015.77
997.42 998.08 998.88 999.78 1000.74 1001.73 1002.74 1003.77 1004.81 1005.84 1006.84 1007.77 1008.61 1009.33 1009.91 1010.36 1010.69 1010.96 1011.19 1011.44 1011.75 1012.12 1012.56 1013.05 1013.57 1014.07 1014.52 1014.91 1015.21 1015.45 1015.63 1015.78 1015.92 1016.06 1016.22 1016.37 1016.52 1016.63 1016.69 1016.67 1016.57 1016.39 1016.13
997.62 998.20 998.88 999.65 1000.48 1001.34 1002.24 1003.17 1004.13 1005.09 1006.04 1006.95 1007.79 1008.53 1009.17 1009.69 1010.11 1010.47 1010.79 1011.13 1011.49 1011.90 1012.37 1012.87 1013.39 1013.89 1014.36 1014.77 1015.12 1015.40 1015.64 1015.84 1016.03 1016.20 1016.38 1016.54 1016.69 1016.81 1016.88 1016.89 1016.83 1016.71 1016.51
998.12 998.63 999.21 999.86 1000.55 1001.27 1002.04 1002.84 1003.67 1004.52 1005.39 1006.23 1007.04 1007.79 1008.45 1009.03 1009.54 1010.00 1010.42 1010.84 1011.28 1011.75 1012.25 1012.77 1013.30 1013.81 1014.30 1014.74 1015.12 1015.46 1015.74 1016.00 1016.22 1016.43 1016.62 1016.79 1016.93 1017.04 1017.11 1017.13 1017.10 1017.02 1016.88
998.92 999.37 999.87 1000.40 1000.96 1001.54 1002.15 1002.80 1003.48 1004.20 1004.94 1005.68 1006.42 1007.13 1007.81 1008.43 1009.01 1009.55 1010.07 1010.58 1011.10 1011.63 1012.17 1012.72 1013.26 1013.80 1014.30 1014.77 1015.20 1015.58 1015.92 1016.22 1016.49 1016.72 1016.92 1017.09 1017.22 1017.32 1017.37 1017.38 1017.36 1017.30 1017.20
999.95 1000.37 1000.79 1001.23 1001.66 1002.11 1002.56 1003.05 1003.56 1004.11 1004.70 1005.32 1005.96 1006.61 1007.25 1007.89 1008.51 1009.12 1009.72 1010.31 1010.90 1011.49 1012.08 1012.66 1013.23 1013.79 1014.32 1014.82 1015.29 1015.72 1016.11 1016.46 1016.77 1017.04 1017.25 1017.42 1017.54 1017.61 1017.64 1017.63 1017.60 1017.54 1017.47
1001.13 1001.51 1001.88 1002.23 1002.56 1002.87 1003.18 1003.50 1003.85 1004.23 1004.65 1005.12 1005.64 1006.19 1006.79 1007.40 1008.04 1008.69 1009.34 1009.99 1010.65 1011.29 1011.92 1012.54 1013.14 1013.72 1014.29 1014.82 1015.33 1015.82 1016.26 1016.67 1017.03 1017.33 1017.56 1017.74 1017.85 1017.90 1017.90 1017.87 1017.82 1017.75 1017.68
1002.31 1002.67 1002.98 1003.25 1003.48 1003.68 1003.86 1004.03 1004.22 1004.44 1004.70 1005.02 1005.41 1005.86 1006.38 1006.95 1007.58 1008.24 1008.93 1009.63 1010.33 1011.01 1011.68 1012.34 1012.97 1013.57 1014.17 1014.74 1015.29 1015.83 1016.33 1016.79 1017.20 1017.54 1017.81 1018.01 1018.12 1018.17 1018.16 1018.11 1018.03 1017.95 1017.86
1003.35 1003.66 1003.91 1004.11 1004.26 1004.36 1004.43 1004.48 1004.54 1004.62 1004.75 1004.94 1005.20 1005.56 1006.00 1006.53 1007.14 1007.80 1008.50 1009.23 1009.96 1010.68 1011.38 1012.06 1012.71 1013.35 1013.96 1014.57 1015.16 1015.74 1016.29 1016.80 1017.26 1017.66 1017.98 1018.20 1018.34 1018.41 1018.40 1018.34 1018.25 1018.15 1018.05
1004.10 1004.35 1004.53 1004.67 1004.74 1004.77 1004.77 1004.73 1004.70 1004.68 1004.71 1004.80 1004.98 1005.26 1005.64 1006.13 1006.71 1007.37 1008.09 1008.83 1009.59 1010.34 1011.06 1011.76 1012.44 1013.09 1013.72 1014.35 1014.97 1015.57 1016.16 1016.72 1017.23 1017.67 1018.04 1018.31 1018.49 1018.58 1018.60 1018.55 1018.46 1018.36 1018.24
1004.50 1004.66 1004.78 1004.85 1004.87 1004.85 1004.80 1004.71 1004.63 1004.56 1004.53 1004.57 1004.70 1004.94 1005.29 1005.76 1006.34 1007.00 1007.73 1008.49 1009.28 1010.05 1010.80 1011.52 1012.21 1012.88 1013.52 1014.16 1014.78 1015.40 1016.00 1016.58 1017.12 1017.59 1018.00 1018.32 1018.55 1018.69 1018.74 1018.73 1018.66 1018.57 1018.45
1004.55 1004.62 1004.67 1004.68 1004.66 1004.61 1004.53 1004.43 1004.34 1004.25 1004.22 1004.25 1004.37 1004.60 1004.96 1005.43 1006.02 1006.70 1007.45 1008.25 1009.06 1009.87 1010.65 1011.40 1012.11 1012.78 1013.43 1014.06 1014.67 1015.27 1015.86 1016.43 1016.97 1017.46 1017.89 1018.24 1018.52 1018.71 1018.81 1018.85 1018.82 1018.75 1018.66
1004.32 1004.31 1004.28 1004.25 1004.19 1004.13 1004.05 1003.96 1003.88 1003.82 1003.81 1003.87 1004.01 1004.27 1004.64 1005.14 1005.76 1006.47 1007.26 1008.10 1008.96 1009.82 1010.64 1011.42 1012.16 1012.84 1013.49 1014.09 1014.67 1015.24 1015.78 1016.31 1016.81 1017.28 1017.71 1018.08 1018.39 1018.62 1018.79 1018.88 1018.92 1018.89 1018.83
1003.95 1003.86 1003.77 1003.69 1003.62 1003.55 1003.47 1003.41 1003.36 1003.33 1003.36 1003.45 1003.64 1003.93 1004.34 1004.88 1005.54 1006.30 1007.14 1008.03 1008.95 1009.86 1010.74 1011.57 1012.34 1013.04 1013.68 1014.27 1014.81 1015.31 1015.79 1016.24 1016.68 1017.10 1017.49 1017.85 1018.17 1018.44 1018.66 1018.82 1018.92 1018.97 1018.96
1003.57 1003.41 1003.28 1003.16 1003.06 1002.98 1002.91 1002.86 1002.84 1002.85 1002.91 1003.04 1003.26 1003.59 1004.03 1004.61 1005.30 1006.11 1007.00 1007.96 1008.94 1009.92 1010.87 1011.76 1012.58 1013.31 1013.95 1014.52 1015.01 1015.45 1015.85 1016.21 1016.56 1016.90 1017.24 1017.56 1017.88 1018.18 1018.44 1018.67 1018.85 1018.98 1019.04
1003.29 1003.09 1002.91 1002.75 1002.62 1002.52 1002.44 1002.38 1002.36 1002.38 1002.46 1002.61 1002.85 1003.20 1003.67 1004.28 1005.00 1005.85 1006.79 1007.80 1008.85 1009.91 1010.93 1011.89 1012.77 1013.54 1014.20 1014.76 1015.22 1015.60 1015.91 1016.19 1016.44 1016.70 1016.96 1017.24 1017.54 1017.85 1018.16 1018.45 1018.72 1018.93 1019.09
Thickness
5816 5814 5811 5808 5804 5799 5794 5791 5786 5783 5779 5774 5769 5765 5761 5760 5758 5757 5754 5752 5750 5749 5747 5746 5744 5743 5741 5739 5738 5738 5738 5738 5740 5737 5735 5738 5742 5742 5742 5742 5741 5741 5740
5809 5805 5802 5801 5797 5792 5788 5786 5782 5779 5776 5772 5768 5764 5760 5758 5756 5754 5751 5748 5747 5746 5745 5743 5742 5740 5738 5737 5736 5735 5734 5735 5737 5732 5728 5726 5729 5735 5740 5740 5738 5738 5738
5802 5798 5793 5792 5792 5788 5785 5782 5779 5775 5772 5769 5765 5762 5757 5754 5751 5749 5747 5745 5744 5743 5742 5741 5739 5738 5737 5734 5733 5733 5731 5729 5732 5732 5726 5720 5718 5724 5731 5734 5735 5735 5734
5801 5795 5792 5787 5786 5784 5781 5777 5774 5771 5768 5765 5761 5756 5751 5747 5747 5746 5744 5743 5742 5741 5740 5739 5738 5736 5735 5733 5732 5732 5731 5729 5726 5728 5729 5727 5725 5718 5718 5725 5729 5731 5730
5799 5793 5790 5785 5784 5781 5778 5773 5769 5766 5764 5761 5757 5753 5750 5747 5746 5744 5742 5740 5740 5739 5739 5737 5736 5735 5733 5731 5730 5729 5729 5728 5725 5724 5724 5724 5723 5722 5716 5714 5718 5722 5725
5796 5792 5788 5784 5780 5778 5774 5770 5765 5762 5760 5756 5753 5749 5746 5744 5741 5739 5737 5737 5737 5736 5736 5735 5734 5732 5731 5729 5727 5726 5725 5724 5723 5722 5721 5720 5717 5716 5715 5712 5712 5713 5718
5791 5786 5782 5777 5774 5772 5769 5766 5761 5757 5755 5752 5749 5746 5743 5740 5737 5736 5734 5734 5733 5732 5732 5732 5730 5728 5727 5726 5724 5722 5721 5720 5719 5718 5718 5718 5717 5717 5715 5711 5709 5710 5712
5786 5782 5778 5773 5769 5767 5764 5761 5757 5752 5750 5747 5744 5742 5739 5737 5734 5733 5733 5731 5731 5730 5730 5728 5726 5724 5724 5722 5721 5719 5718 5717 5716 5716 5714 5714 5715 5715 5714 5710 5706 5702 5703
5777 5775 5773 5770 5766 5762 5758 5756 5752 5748 5746 5743 5740 5738 5735 5733 5731 5730 5730 5729 5728 5728 5727 5725 5723 5721 5720 5718 5717 5715 5714 5713 5713 5712 5711 5709 5710 5711 5711 5709 5706 5698 5693
5768 5766 5765 5763 5761 5758 5755 5752 5747 5743 5741 5738 5735 5734 5731 5729 5728 5726 5725 5725 5725 5724 5723 5721 5719 5717 5715 5714 5713 5711 5710 5709 5708 5707 5705 5704 5705 5705 5705 5704 5703 5701 5695
5758 5755 5754 5753 5751 5751 5749 5745 5742 5738 5735 5733 5730 5728 5726 5725 5723 5722 5721 5721 5720 5720 5718 5716 5714 5712 5711 5710 5708 5707 5706 5704 5703 5702 5701 5700 5699 5698 5698 5698 5697 5696 5694
5748 5745 5744 5744 5742 5741 5739 5737 5735 5733 5730 5728 5725 5723 5721 5720 5718 5717 5716 5716 5715 5714 5713 5711 5709 5708 5706 5705 5703 5702 5702 5700 5698 5698 5696 5695 5694 5692 5692 5691 5691 5689 5689
5738 5736 5733 5732 5731 5730 5729 5728 5727 5726 5724 5721 5719 5717 5715 5714 5712 5712 5711 5710 5709 5708 5707 5705 5703 5702 5701 5700 5699 5697 5697 5695 5694 5693 5691 5690 5688 5685 5685 5685 5684 5683 5684
5727 5725 5723 5721 5721 5721 5719 5719 5718 5718 5717 5714 5711 5709 5708 5708 5707 5707 5706 5704 5703 5702 5701 5700 5698 5697 5695 5694 5693 5692 5691 5691 5690 5688 5686 5685 5682 5680 5679 5679 5678 5677 5675
5715 5714 5712 5711 5711 5710 5709 5710 5710 5709 5708 5706 5704 5703 5703 5703 5702 5701 5700 5698 5697 5696 5695 5694 5692 5691 5690 5689 5687 5686 5686 5684 5683 5682 5681 5679 5678 5676 5674 5673 5672 5671 5669
5706 5705 5704 5702 5701 5700 5700 5700 5701 5701 5700 5698 5698 5698 5697 5696 5695 5694 5693 5692 5690 5689 5688 5687 5686 5684 5684 5683 5681 5680 5679 5678 5677 5675 5675 5674 5672 5671 5669 5667 5666 5664 5662
5699 5696 5695 5693 5692 5692 5692 5691 5692 5693 5692 5691 5691 5690 5689 5689 5689 5688 5686 5685 5683 5682 5681 5681 5680 5678 5677 5676 5674 5673 5673 5672 5671 5670 5669 5669 5668 5666 5663 5662 5660 5658 5657
5690 5689 5688 5686 5686 5686 5685 5685 5685 5685 5684 5684 5683 5683 5682 5682 5682 5681 5680 5678 5677 5676 5675 5675 5674 5673 5671 5670 5668 5667 5667 5666 5666 5665 5664 5662 5661 5660 5658 5657 5655 5654 5652
5683 5681 5681 5681 5679 5679 5678 5678 5677 5677 5677 5677 5676 5677 5676 5674 5674 5673 5672 5672 5671 5670 5669 5669 5668 5667 5665 5664 5662 5660 5661 5660 5660 5660 5659 5658 5655 5653 5651 5650 5648 5647 5646
5675 5673 5673 5673 5671 5671 5671 5669 5669 5669 5669 5670 5670 5670 5669 5667 5666 5666 5665 5665 5664 5664 5664 5664 5663 5661 5660 5658 5656 5654 5654 5654 5654 5654 5654 5652 5650 5647 5644 5643 5641 5640 5640
5666 5666 5665 5663 5663 5663 5663 5661 5660 5661 5662 5664 5663 5663 5661 5660 5660 5659 5659 5658 5658 5658 5658 5658 5657 5656 5655 5653 5650 5648 5648 5647 5646 5647 5647 5646 5643 5641 5638 5636 5635 5634 5633
5658 5658 5657 5656 5656 5656 5655 5653 5653 5655 5656 5656 5656 5655 5654 5654 5654 5652 5652 5652 5651 5650 5651 5650 5649 5650 5649 5647 5644 5642 5641 5641 5639 5640 5640 5639 5637 5634 5632 5630 5629 5628 5626
5649 5650 5649 5648 5649 5649 5648 5646 5647 5649 5649 5648 5648 5647 5647 5647 5647 5646 5645 5645 5644 5644 5644 5643 5642 5641 5642 5641 5638 5635 5634 5633 5632 5633 5632 5631 5630 5628 5627 5625 5623 5621 5620
5640 5641 5641 5641 5641 5643 5643 5642 5643 5643 5642 5641 5640 5641 5640 5641 5641 5639 5640 5640 5639 5638 5638 5636 5636 5635 5634 5633 5631 5629 5627 5625 5624 5624 5623 5623 5623 5622 5622 5621 5618 5617 5616
5633 5633 5633 5633 5634 5636 5637 5637 5637 5637 5635 5634 5634 5634 5634 5634 5633 5633 5632 5634 5633 5632 5631 5631 5630 5629 5627 5626 5623 5622 5621 5621 5619 5617 5617 5617 5617 5617 5618 5617 5616 5614 5612
5625 5626 5627 5627 5628 5629 5630 5631 5631 5631 5629 5628 5628 5628 5628 5628 5627 5627 5626 5625 5626 5625 5624 5623 5622 5622 5620 5618 5616 5614 5614 5613 5612 5610 5611 5612 5613 5613 5613 5612 5610 5609 5607